OAL822 SUMU-SAMM

Flight info

Callsign OAL822
Flight time N/A
Altitude 34000
Route DAGUS UL405 UGIMI DCT PTA DCT EZE UW68 GPI UM783 LOLAS USVER
Aircraft B738/M-SDE2E3FGHIRWXY/LB1

Departure

Time 2026-05-09 13:57
Airport Carrasco General Cesáreo L. Berisso International Airport (SUMU)

Arrival

Time N/A
Airport Comodoro D.R. Salomón Airport (SAMM)
Time Latitude Longitude Altitude Speed Heading
2026-05-09 13:51 -34.82803 -56.01380 108 ft 0 kts 233°
2026-05-09 13:56 -34.82937 -56.01598 103 ft 76 kts 233°
2026-05-09 13:57 -34.83409 -56.02402 92 ft 155 kts 236°
2026-05-09 13:57 -34.84156 -56.03594 613 ft 185 kts 232°
2026-05-09 13:57 -34.85005 -56.04676 2049 ft 166 kts 221°
2026-05-09 13:57 -34.86084 -56.05352 2861 ft 192 kts 201°
2026-05-09 13:58 -34.87480 -56.05832 3132 ft 224 kts 198°
2026-05-09 13:58 -34.89030 -56.06353 3781 ft 235 kts 199°
2026-05-09 13:58 -34.90613 -56.06919 4676 ft 238 kts 200°
2026-05-09 13:58 -34.92197 -56.07521 5635 ft 240 kts 201°
2026-05-09 13:59 -34.93791 -56.08158 6471 ft 242 kts 202°
2026-05-09 13:59 -34.95398 -56.08821 7364 ft 244 kts 202°
2026-05-09 13:59 -34.97007 -56.09498 8227 ft 246 kts 201°
2026-05-09 13:59 -34.98653 -56.10200 8943 ft 254 kts 201°
2026-05-09 14:00 -35.00348 -56.10925 9522 ft 265 kts 202°
2026-05-09 14:00 -35.00909 -56.11207 9622 ft 268 kts 208°
2026-05-09 14:00 -35.02994 -56.13896 9908 ft 270 kts 242°
2026-05-09 14:00 -35.03507 -56.16107 9899 ft 276 kts 262°
2026-05-09 14:01 -35.03440 -56.18430 9932 ft 272 kts 270°
2026-05-09 14:01 -35.03281 -56.20708 9933 ft 269 kts 271°
2026-05-09 14:01 -35.03108 -56.22981 9922 ft 266 kts 270°
2026-05-09 14:01 -35.02940 -56.25189 9920 ft 264 kts 271°
2026-05-09 14:02 -35.02771 -56.27453 9942 ft 269 kts 271°
2026-05-09 14:02 -35.02607 -56.29684 9917 ft 268 kts 271°
2026-05-09 14:02 -35.02440 -56.31956 9932 ft 271 kts 271°
2026-05-09 14:02 -35.02273 -56.34266 9935 ft 274 kts 271°
2026-05-09 14:03 -35.02104 -56.36584 9947 ft 276 kts 271°
2026-05-09 14:03 -35.01935 -56.38920 9938 ft 276 kts 271°
2026-05-09 14:03 -35.01824 -56.40462 9933 ft 276 kts 272°
2026-05-09 14:03 -35.01599 -56.43580 9961 ft 278 kts 271°
2026-05-09 14:04 -35.01485 -56.45134 9945 ft 276 kts 270°
2026-05-09 14:04 -35.01321 -56.47428 9946 ft 275 kts 271°
2026-05-09 14:04 -35.01154 -56.49762 9963 ft 279 kts 271°
2026-05-09 14:04 -35.00984 -56.52113 9951 ft 278 kts 271°
2026-05-09 14:05 -35.00818 -56.54422 9954 ft 275 kts 271°
2026-05-09 14:05 -35.00648 -56.56745 9958 ft 275 kts 271°
2026-05-09 14:05 -35.00478 -56.59078 9979 ft 278 kts 271°
2026-05-09 14:05 -35.00305 -56.61446 10006 ft 280 kts 272°
2026-05-09 14:06 -35.00130 -56.63802 10448 ft 280 kts 271°
2026-05-09 14:06 -34.99959 -56.66124 11400 ft 275 kts 272°
2026-05-09 14:06 -34.99786 -56.68464 12194 ft 278 kts 271°
2026-05-09 14:06 -34.99611 -56.70834 12836 ft 286 kts 271°
2026-05-09 14:07 -34.99432 -56.73278 13588 ft 288 kts 272°
2026-05-09 14:07 -34.99250 -56.75726 14313 ft 291 kts 270°
2026-05-09 14:07 -34.99065 -56.78207 14930 ft 296 kts 270°
2026-05-09 14:07 -34.98878 -56.80735 15563 ft 301 kts 269°
2026-05-09 14:08 -34.98689 -56.83266 16233 ft 304 kts 270°
2026-05-09 14:08 -34.98494 -56.85851 16871 ft 309 kts 269°
2026-05-09 14:08 -34.98303 -56.88545 17033 ft 328 kts 269°
2026-05-09 14:08 -34.98219 -56.91405 17207 ft 346 kts 265°
2026-05-09 14:09 -34.98212 -56.94408 17465 ft 360 kts 265°
2026-05-09 14:09 -34.98222 -56.97485 18083 ft 364 kts 265°
2026-05-09 14:09 -34.98232 -57.00599 18564 ft 371 kts 264°
2026-05-09 14:09 -34.98235 -57.03730 19012 ft 378 kts 265°
2026-05-09 14:10 -34.98223 -57.10226 20002 ft 386 kts 265°
2026-05-09 14:10 -34.98210 -57.13513 20505 ft 390 kts 265°
2026-05-09 14:10 -34.98193 -57.16849 20959 ft 395 kts 265°
2026-05-09 14:11 -34.98175 -57.20209 21454 ft 399 kts 265°
2026-05-09 14:11 -34.98156 -57.23614 21957 ft 402 kts 265°
2026-05-09 14:11 -34.98137 -57.27041 22448 ft 406 kts 265°
2026-05-09 14:11 -34.98116 -57.30503 22908 ft 410 kts 265°
2026-05-09 14:12 -34.98093 -57.33995 23384 ft 414 kts 265°
2026-05-09 14:12 -34.98070 -57.37533 23884 ft 418 kts 266°
2026-05-09 14:12 -34.98045 -57.41089 24349 ft 421 kts 266°
2026-05-09 14:12 -34.98018 -57.44670 24747 ft 425 kts 266°
2026-05-09 14:13 -34.97991 -57.48253 25155 ft 428 kts 266°
2026-05-09 14:14 -34.97763 -57.74233 27721 ft 448 kts 266°
2026-05-09 14:15 -34.97725 -57.78051 28037 ft 452 kts 266°
2026-05-09 14:15 -34.97686 -57.81896 28350 ft 454 kts 266°
2026-05-09 14:15 -34.97645 -57.85773 28683 ft 456 kts 266°
2026-05-09 14:15 -34.97493 -57.89609 28968 ft 462 kts 272°
2026-05-09 14:16 -34.96872 -57.93492 29242 ft 470 kts 282°
2026-05-09 14:16 -34.95966 -57.97339 29542 ft 472 kts 283°
2026-05-09 14:16 -34.95013 -58.01175 29813 ft 475 kts 283°
2026-05-09 14:16 -34.94047 -58.05048 30080 ft 477 kts 283°
2026-05-09 14:17 -34.93090 -58.08935 30297 ft 479 kts 283°
2026-05-09 14:17 -34.92144 -58.12836 30642 ft 478 kts 283°
2026-05-09 14:17 -34.91214 -58.16716 31101 ft 475 kts 283°
2026-05-09 14:17 -34.90298 -58.20555 31582 ft 470 kts 283°
2026-05-09 14:18 -34.89400 -58.24324 32009 ft 468 kts 283°
2026-05-09 14:18 -34.88491 -58.28142 32325 ft 468 kts 284°
2026-05-09 14:18 -34.87582 -58.31946 32614 ft 468 kts 284°
2026-05-09 14:18 -34.86670 -58.35758 32922 ft 467 kts 284°
2026-05-09 14:19 -34.85758 -58.39559 33046 ft 469 kts 284°
2026-05-09 14:19 -34.83922 -58.47193 33046 ft 470 kts 284°
2026-05-09 14:20 -34.83060 -58.54907 33059 ft 458 kts 266°
2026-05-09 14:20 -34.83978 -58.62534 33063 ft 454 kts 254°
2026-05-09 14:21 -34.86185 -58.73719 33045 ft 454 kts 254°
2026-05-09 14:21 -34.87629 -58.81223 33048 ft 454 kts 254°
2026-05-09 14:22 -34.89039 -58.88720 33059 ft 454 kts 255°
2026-05-09 14:22 -34.90437 -58.96229 33065 ft 454 kts 255°
2026-05-09 14:23 -34.91828 -59.03711 33072 ft 455 kts 254°
2026-05-09 14:23 -34.93225 -59.11258 33061 ft 455 kts 255°
2026-05-09 14:24 -34.94614 -59.18786 33076 ft 455 kts 255°
2026-05-09 14:24 -34.95989 -59.26262 33085 ft 455 kts 255°
2026-05-09 14:25 -34.97371 -59.33800 33086 ft 455 kts 255°
2026-05-09 14:25 -34.98748 -59.41341 33088 ft 455 kts 255°
2026-05-09 14:26 -35.00116 -59.48871 33098 ft 454 kts 255°
2026-05-09 14:26 -35.01482 -59.56402 33100 ft 454 kts 255°
2026-05-09 14:27 -35.02833 -59.63888 33113 ft 454 kts 255°
2026-05-09 14:27 -35.04187 -59.71421 33116 ft 454 kts 255°
2026-05-09 14:28 -35.05537 -59.78955 33113 ft 454 kts 255°
2026-05-09 14:28 -35.06880 -59.86482 33127 ft 454 kts 255°
2026-05-09 14:29 -35.08219 -59.94014 33130 ft 454 kts 255°
2026-05-09 14:29 -35.09554 -60.01548 33129 ft 454 kts 255°
2026-05-09 14:30 -35.10883 -60.09079 33137 ft 454 kts 255°
2026-05-09 14:30 -35.12210 -60.16628 33152 ft 453 kts 255°
2026-05-09 14:31 -35.13529 -60.24160 33157 ft 453 kts 255°
2026-05-09 14:31 -35.14837 -60.31659 33158 ft 454 kts 255°
2026-05-09 14:32 -35.16145 -60.39193 33159 ft 454 kts 255°
2026-05-09 14:32 -35.17450 -60.46757 33167 ft 454 kts 255°
2026-05-09 14:33 -35.18747 -60.54310 33170 ft 454 kts 255°
2026-05-09 14:33 -35.20039 -60.61862 33182 ft 454 kts 255°
2026-05-09 14:34 -35.21321 -60.69380 33180 ft 454 kts 255°
2026-05-09 14:34 -35.22607 -60.76952 33189 ft 454 kts 255°
2026-05-09 14:35 -35.23891 -60.84540 33194 ft 454 kts 255°
2026-05-09 14:35 -35.25158 -60.92059 33202 ft 454 kts 255°
2026-05-09 14:36 -35.26428 -60.99628 33213 ft 454 kts 255°
2026-05-09 14:36 -35.27694 -61.07205 33214 ft 454 kts 255°
2026-05-09 14:37 -35.28953 -61.14767 33220 ft 454 kts 255°
2026-05-09 14:37 -35.30210 -61.22352 33224 ft 454 kts 255°
2026-05-09 14:38 -35.31461 -61.29926 33220 ft 454 kts 255°
2026-05-09 14:38 -35.32700 -61.37462 33232 ft 453 kts 255°
2026-05-09 14:39 -35.33940 -61.45037 33234 ft 453 kts 255°
2026-05-09 14:39 -35.35177 -61.52619 33234 ft 453 kts 255°
2026-05-09 14:40 -35.36405 -61.60183 33241 ft 452 kts 255°
2026-05-09 14:40 -35.37628 -61.67740 33242 ft 451 kts 255°
2026-05-09 14:41 -35.38843 -61.75281 33249 ft 450 kts 255°
2026-05-09 14:41 -35.40043 -61.82751 33254 ft 449 kts 255°
2026-05-09 14:42 -35.41234 -61.90190 33257 ft 448 kts 255°
2026-05-09 14:42 -35.42431 -61.97698 33259 ft 447 kts 255°
2026-05-09 14:43 -35.43601 -62.05071 33260 ft 447 kts 255°
2026-05-09 14:43 -35.44784 -62.12554 33258 ft 446 kts 255°
2026-05-09 14:44 -35.45947 -62.19937 33259 ft 445 kts 255°
2026-05-09 14:44 -35.47116 -62.27396 33280 ft 445 kts 255°
2026-05-09 14:45 -35.48274 -62.34813 33269 ft 444 kts 254°
2026-05-09 14:45 -35.49434 -62.42271 33283 ft 444 kts 254°
2026-05-09 14:46 -35.50582 -62.49688 33284 ft 444 kts 254°
2026-05-09 14:46 -35.51734 -62.57163 33291 ft 444 kts 254°
2026-05-09 14:47 -35.52880 -62.64627 33286 ft 445 kts 254°
2026-05-09 14:47 -35.54015 -62.72058 33295 ft 445 kts 254°
2026-05-09 14:48 -35.55155 -62.79548 33295 ft 446 kts 254°
2026-05-09 14:48 -35.56276 -62.86968 33284 ft 435 kts 254°
2026-05-09 14:49 -35.57376 -62.94252 33295 ft 431 kts 253°
2026-05-09 14:49 -35.58464 -63.01490 33311 ft 431 kts 253°
2026-05-09 14:50 -35.59538 -63.08691 33308 ft 432 kts 253°
2026-05-09 14:50 -35.60616 -63.15947 33312 ft 432 kts 253°
2026-05-09 14:51 -35.61693 -63.23235 33317 ft 433 kts 253°
2026-05-09 14:51 -35.62767 -63.30519 33317 ft 434 kts 252°
2026-05-09 14:52 -35.63651 -63.36602 33317 ft 435 kts 252°
2026-05-09 14:52 -35.64688 -63.43935 33305 ft 436 kts 252°
2026-05-09 14:53 -35.65723 -63.51302 33288 ft 437 kts 252°
2026-05-09 14:53 -35.66758 -63.58674 33278 ft 438 kts 252°
2026-05-09 14:54 -35.67793 -63.66074 33265 ft 438 kts 252°
2026-05-09 14:54 -35.68824 -63.73476 33262 ft 439 kts 251°
2026-05-09 14:55 -35.69285 -63.81055 33272 ft 451 kts 262°
2026-05-09 14:55 -35.69141 -63.88758 33259 ft 454 kts 262°
2026-05-09 14:56 -35.68976 -63.96529 33284 ft 454 kts 262°
2026-05-09 14:56 -35.68850 -64.04318 33308 ft 455 kts 261°
2026-05-09 14:57 -35.68742 -64.12071 33336 ft 456 kts 261°
2026-05-09 14:57 -35.68632 -64.19889 33361 ft 457 kts 261°
2026-05-09 14:58 -35.68515 -64.27712 33361 ft 458 kts 260°
2026-05-09 14:58 -35.68392 -64.35572 33368 ft 460 kts 260°
2026-05-09 14:59 -35.68262 -64.43459 33361 ft 461 kts 259°
2026-05-09 14:59 -35.68127 -64.51374 33369 ft 463 kts 259°
2026-05-09 15:00 -35.67988 -64.59247 33372 ft 464 kts 259°
2026-05-09 15:00 -35.67841 -64.67206 33382 ft 466 kts 259°
2026-05-09 15:01 -35.67611 -64.79213 33384 ft 469 kts 259°
2026-05-09 15:02 -35.67466 -64.87235 33396 ft 470 kts 258°
2026-05-09 15:02 -35.67327 -64.95239 33405 ft 471 kts 258°
2026-05-09 15:03 -35.67184 -65.03300 33404 ft 473 kts 258°
2026-05-09 15:03 -35.67032 -65.11393 33409 ft 474 kts 258°
2026-05-09 15:04 -35.66873 -65.19518 33402 ft 475 kts 258°
2026-05-09 15:06 -35.66179 -65.51913 33417 ft 473 kts 257°
2026-05-09 15:06 -35.65994 -65.60004 33413 ft 473 kts 257°
2026-05-09 15:07 -35.65803 -65.68077 33419 ft 472 kts 257°
2026-05-09 15:07 -35.65607 -65.76162 33428 ft 472 kts 257°
2026-05-09 15:08 -35.65407 -65.84200 33427 ft 472 kts 257°
2026-05-09 15:08 -35.65096 -65.96256 33435 ft 471 kts 257°
2026-05-09 15:10 -35.64207 -66.28453 33445 ft 471 kts 257°
2026-05-09 15:11 -35.63971 -66.36515 33453 ft 471 kts 257°
2026-05-09 15:11 -35.63731 -66.44526 33444 ft 471 kts 257°
2026-05-09 15:12 -35.63484 -66.52571 33447 ft 471 kts 258°
2026-05-09 15:12 -35.63233 -66.60599 33452 ft 471 kts 258°
2026-05-09 15:13 -35.62975 -66.68657 33454 ft 471 kts 258°
2026-05-09 15:13 -35.62713 -66.76695 33455 ft 471 kts 258°
2026-05-09 15:14 -35.62446 -66.84697 33454 ft 470 kts 258°
2026-05-09 15:14 -35.62168 -66.92656 33445 ft 462 kts 258°
2026-05-09 15:15 -35.61892 -67.00496 33457 ft 458 kts 258°
2026-05-09 15:15 -35.61624 -67.08338 33065 ft 459 kts 258°
2026-05-09 15:16 -35.61484 -67.12246 32699 ft 453 kts 258°
2026-05-09 15:16 -35.61341 -67.16102 32304 ft 449 kts 258°
2026-05-09 15:16 -35.61199 -67.19916 31911 ft 446 kts 259°
2026-05-09 15:16 -35.61060 -67.23650 31524 ft 442 kts 259°
2026-05-09 15:17 -35.60920 -67.27418 31140 ft 439 kts 259°
2026-05-09 15:17 -35.60780 -67.31172 30755 ft 436 kts 259°
2026-05-09 15:17 -35.60642 -67.34880 30340 ft 433 kts 259°
2026-05-09 15:17 -35.60503 -67.38572 29892 ft 430 kts 259°
2026-05-09 15:18 -35.60364 -67.42182 29475 ft 426 kts 259°
2026-05-09 15:18 -35.60221 -67.45857 29067 ft 422 kts 259°
2026-05-09 15:18 -35.60084 -67.49396 28667 ft 419 kts 259°
2026-05-09 15:18 -35.59944 -67.52956 28270 ft 415 kts 259°
2026-05-09 15:19 -35.59805 -67.56489 27882 ft 412 kts 259°
2026-05-09 15:19 -35.59666 -67.60004 27500 ft 409 kts 260°
2026-05-09 15:19 -35.59527 -67.63483 27106 ft 406 kts 260°
2026-05-09 15:19 -35.59390 -67.66891 26727 ft 403 kts 260°
2026-05-09 15:20 -35.59252 -67.70321 26347 ft 401 kts 260°
2026-05-09 15:20 -35.58975 -67.77134 25588 ft 396 kts 260°
2026-05-09 15:20 -35.58835 -67.80514 25212 ft 395 kts 260°
2026-05-09 15:21 -35.58696 -67.83874 24828 ft 393 kts 261°
2026-05-09 15:21 -35.58556 -67.87225 24447 ft 392 kts 261°
2026-05-09 15:21 -35.58416 -67.90567 24053 ft 391 kts 261°
2026-05-09 15:21 -35.58277 -67.93866 23623 ft 389 kts 261°
2026-05-09 15:22 -35.58135 -67.97174 23222 ft 387 kts 262°
2026-05-09 15:22 -35.57992 -68.00469 22834 ft 384 kts 262°
2026-05-09 15:22 -35.57850 -68.03735 22461 ft 381 kts 263°
2026-05-09 15:22 -35.57708 -68.06978 22087 ft 378 kts 263°
2026-05-09 15:23 -35.57567 -68.10182 21714 ft 375 kts 263°
2026-05-09 15:23 -35.57426 -68.13371 21358 ft 372 kts 264°
2026-05-09 15:23 -35.57287 -68.16502 21004 ft 369 kts 264°
2026-05-09 15:23 -35.57145 -68.19681 20641 ft 367 kts 264°
2026-05-09 15:24 -35.57007 -68.22765 20289 ft 364 kts 265°
2026-05-09 15:24 -35.56866 -68.25899 19945 ft 362 kts 265°
2026-05-09 15:24 -35.56729 -68.28939 19576 ft 361 kts 265°
2026-05-09 15:24 -35.56589 -68.32020 19232 ft 359 kts 265°
2026-05-09 15:25 -35.56449 -68.35074 18875 ft 358 kts 265°
2026-05-09 15:25 -35.56310 -68.38123 18483 ft 356 kts 266°
2026-05-09 15:25 -35.56169 -68.41158 18085 ft 353 kts 266°
2026-05-09 15:26 -35.55889 -68.47078 17391 ft 345 kts 267°
2026-05-09 15:26 -35.55749 -68.50017 17036 ft 343 kts 267°
2026-05-09 15:26 -35.55610 -68.52924 16686 ft 338 kts 267°
2026-05-09 15:26 -35.55474 -68.55801 16375 ft 335 kts 267°
2026-05-09 15:27 -35.55339 -68.58645 16018 ft 333 kts 268°
2026-05-09 15:27 -35.55202 -68.61478 15691 ft 330 kts 268°
2026-05-09 15:27 -35.55068 -68.64251 15367 ft 328 kts 268°
2026-05-09 15:27 -35.54932 -68.67064 15041 ft 325 kts 269°
2026-05-09 15:28 -35.54798 -68.69809 14720 ft 323 kts 269°
2026-05-09 15:28 -35.54664 -68.72547 14400 ft 321 kts 270°
2026-05-09 15:28 -35.54529 -68.75274 14058 ft 319 kts 270°
2026-05-09 15:28 -35.54396 -68.77981 13714 ft 317 kts 270°
2026-05-09 15:29 -35.54261 -68.80677 13391 ft 314 kts 270°
2026-05-09 15:29 -35.54127 -68.83350 13055 ft 312 kts 271°
2026-05-09 15:29 -35.53996 -68.85966 12776 ft 309 kts 271°
2026-05-09 15:29 -35.53863 -68.88595 12439 ft 307 kts 271°
2026-05-09 15:30 -35.53732 -68.91197 12127 ft 304 kts 271°
2026-05-09 15:30 -35.53600 -68.93790 11808 ft 302 kts 271°
2026-05-09 15:30 -35.53469 -68.96357 11512 ft 300 kts 272°
2026-05-09 15:30 -35.53338 -68.98902 11214 ft 298 kts 272°
2026-05-09 15:31 -35.53208 -69.01445 10913 ft 296 kts 272°
2026-05-09 15:31 -35.53078 -69.03951 10712 ft 291 kts 272°
2026-05-09 15:31 -35.52951 -69.06393 10601 ft 282 kts 272°
2026-05-09 15:31 -35.52827 -69.08765 10482 ft 274 kts 272°
2026-05-09 15:32 -35.52706 -69.11081 10271 ft 270 kts 272°
2026-05-09 15:32 -35.52587 -69.13342 10032 ft 267 kts 273°
2026-05-09 15:32 -35.52466 -69.15642 9712 ft 267 kts 273°
2026-05-09 15:32 -35.52345 -69.17938 9207 ft 274 kts 273°
2026-05-09 15:33 -35.52222 -69.20254 9005 ft 269 kts 273°
2026-05-09 15:33 -35.52102 -69.22515 8885 ft 261 kts 273°
2026-05-09 15:33 -35.52102 -69.24718 8759 ft 254 kts 263°
2026-05-09 15:33 -35.52435 -69.26888 8041 ft 269 kts 253°
2026-05-09 15:34 -35.53134 -69.29083 7320 ft 284 kts 243°
2026-05-09 15:34 -35.54170 -69.31168 6590 ft 296 kts 233°
2026-05-09 15:34 -35.55544 -69.33111 5813 ft 307 kts 224°
2026-05-09 15:34 -35.57137 -69.34881 5055 ft 312 kts 221°
2026-05-09 15:35 -35.58743 -69.36600 5275 ft 282 kts 221°
2026-05-09 15:35 -35.60098 -69.38035 6509 ft 236 kts 221°
2026-05-09 15:35 -35.61423 -69.39423 6548 ft 258 kts 220°